Weather History for Henderson, KY

Change the Weather History Date:

Tuesday, October 18, 2011

  Actual Average Record
Temperature  
Mean Temperature 50 °F -  
Max Temperature 53 °F 67 °F 87 °F (1953)
Min Temperature 46 °F 45 °F 26 °F (1948)
Degree Days  
Heating Degree Days 16    
Moisture  
Dew Point 36 °F    
Average Humidity 64    
Maximum Humidity 71    
Minimum Humidity 47    
Precipitation  
Precipitation 0.07 in - - ()
Sea Level Pressure  
Sea Level Pressure 29.81 in    
Wind  
Wind Speed 10 mph (North)    
Max Wind Speed 14 mph    
Max Gust Speed 23 mph    
Visibility 9 miles    
Events      
Averages and records for this station are not official NWS values.
T = Trace of Precipitation, MM = Missing Value Source: NWS Daily Summary

Daily Weather History Graph

Daily Weather History Graph

Search for Another Location

Airport:

Trip Planner

Search our weather history database for the weather conditions in past years. The results will help you decide how hot, cold, wet, or windy it might be!

Date:

Astronomy

Oct. 18, 2011 Rise Set
Actual Time 7:01 AM CDT 6:09 PM CDT
Civil Twilight 6:35 AM CDT 6:35 PM CDT
Nautical Twilight 6:04 AM CDT 7:06 PM CDT
Astronomical Twilight 5:34 AM CDT 7:36 PM CDT
Moon 10:53 PM CDT (10/18) 12:48 PM CDT (10/18)
Length of Visible Light 12h 00m
Length of Day
11h 07m
Waning Gibbous, 64% of the Moon is Illuminated
Oct 18
Waning Gibbous
Oct 19
Last Quarter
Oct 26
New
Nov 2
First Quarter
Nov 10
Full

Hourly Weather History & Observations

Time (CDT) Temp. Windchill Dew Point Humidity Pressure Visibility Wind Dir Wind Speed Gust Speed Precip Events Conditions
12:15 AM 53.6 °F - 33.8 °F 47% 29.89 in 10.0 mi NNE 9.2 mph - N/A   Overcast
12:35 AM 53.6 °F - 33.8 °F 47% 29.87 in 5.0 mi NNE 12.7 mph - N/A   Mostly Cloudy
12:55 AM 51.8 °F - 33.8 °F 50% 29.87 in 2.5 mi NNE 12.7 mph - N/A   Mostly Cloudy
1:15 AM 51.8 °F - 33.8 °F 50% 29.87 in 2.5 mi NNE 8.1 mph - N/A   Scattered Clouds
1:35 AM 51.8 °F - 33.8 °F 50% 29.87 in 3.0 mi NNE 11.5 mph - N/A   Scattered Clouds
1:55 AM 51.8 °F - 33.8 °F 50% 29.85 in 2.5 mi NNE 11.5 mph - N/A   Partly Cloudy
2:15 AM 51.8 °F - 33.8 °F 50% 29.84 in 1.2 mi NE 9.2 mph - N/A   Scattered Clouds
2:55 AM 50.0 °F - 33.8 °F 54% 29.84 in 1.2 mi NNE 6.9 mph - N/A   Mostly Cloudy
3:15 AM 50.0 °F - 33.8 °F 54% 29.85 in 10.0 mi North 6.9 mph - N/A   Mostly Cloudy
3:35 AM 51.8 °F - 33.8 °F 50% 29.86 in 10.0 mi North 8.1 mph - N/A   Overcast
3:55 AM 50.0 °F - 33.8 °F 54% 29.86 in 10.0 mi North 9.2 mph 16.1 mph N/A   Mostly Cloudy
4:15 AM 48.2 °F - 33.8 °F 58% 29.86 in 10.0 mi North 10.4 mph 17.3 mph N/A   Scattered Clouds
4:35 AM 48.2 °F - 33.8 °F 58% 29.86 in 10.0 mi North 11.5 mph - N/A   Mostly Cloudy
4:55 AM 48.2 °F - 35.6 °F 62% 29.86 in 10.0 mi North 11.5 mph 17.3 mph N/A   Mostly Cloudy
5:15 AM 48.2 °F - 35.6 °F 62% 29.84 in 8.0 mi NNE 12.7 mph 19.6 mph N/A   Overcast
5:35 AM 46.4 °F 40.4 °F 35.6 °F 66% 29.83 in 6.0 mi NNE 13.8 mph - N/A   Mostly Cloudy
5:55 AM 46.4 °F 41.1 °F 35.6 °F 66% 29.82 in 7.0 mi NE 11.5 mph - N/A   Scattered Clouds
6:15 AM 46.4 °F 41.9 °F 35.6 °F 66% 29.82 in 9.0 mi NNE 9.2 mph - N/A   Mostly Cloudy
6:35 AM 46.4 °F 41.9 °F 35.6 °F 66% 29.81 in 9.0 mi NE 9.2 mph - N/A   Partly Cloudy
7:15 AM 46.4 °F 42.9 °F 35.6 °F 66% 29.83 in 10.0 mi North 6.9 mph - N/A   Overcast
7:35 AM 46.4 °F 41.1 °F 37.4 °F 71% 29.81 in 10.0 mi NNE 11.5 mph - N/A   Overcast
7:55 AM 46.4 °F 43.5 °F 35.6 °F 66% 29.82 in 10.0 mi North 5.8 mph - N/A   Overcast
8:15 AM 46.4 °F 42.9 °F 35.6 °F 66% 29.83 in 10.0 mi North 6.9 mph - N/A   Overcast
8:35 AM 46.4 °F 42.9 °F 35.6 °F 66% 29.82 in 10.0 mi North 6.9 mph - N/A   Overcast
9:15 AM 46.4 °F 41.5 °F 35.6 °F 66% 29.81 in 10.0 mi NNE 10.4 mph - N/A   Overcast
9:35 AM 46.4 °F 41.9 °F 35.6 °F 66% 29.80 in 10.0 mi North 9.2 mph - N/A   Mostly Cloudy
9:55 AM 46.4 °F 41.9 °F 35.6 °F 66% 29.80 in 10.0 mi North 9.2 mph - N/A   Mostly Cloudy
10:15 AM 48.2 °F - 35.6 °F 62% 29.81 in 10.0 mi NNW 11.5 mph - N/A   Overcast
10:35 AM 48.2 °F - 35.6 °F 62% 29.81 in 10.0 mi North 9.2 mph - N/A   Overcast
10:55 AM 48.2 °F - 35.6 °F 62% 29.81 in 10.0 mi North 9.2 mph 17.3 mph N/A   Overcast
11:15 AM 48.2 °F - 35.6 °F 62% 29.81 in 10.0 mi North 9.2 mph - N/A   Overcast
11:55 AM 48.2 °F - 35.6 °F 62% 29.81 in 10.0 mi NNW 9.2 mph 17.3 mph N/A   Overcast
12:35 PM 48.2 °F - 37.4 °F 66% 29.79 in 10.0 mi NNW 12.7 mph 16.1 mph N/A   Overcast
12:55 PM 48.2 °F - 35.6 °F 62% 29.78 in 10.0 mi North 9.2 mph 16.1 mph N/A   Overcast
1:15 PM 48.2 °F - 37.4 °F 66% 29.78 in 10.0 mi North 12.7 mph 17.3 mph N/A   Overcast
1:35 PM 46.4 °F 41.9 °F 37.4 °F 71% 29.79 in 10.0 mi NNW 9.2 mph - N/A   Overcast
2:15 PM 46.4 °F 42.4 °F 37.4 °F 71% 29.79 in 10.0 mi North 8.1 mph - N/A   Overcast
2:35 PM 46.4 °F 42.9 °F 37.4 °F 71% 29.77 in 10.0 mi North 6.9 mph - 0.01 in   Overcast
2:55 PM 46.4 °F 42.9 °F 37.4 °F 71% 29.78 in 10.0 mi North 6.9 mph - 0.01 in   Overcast
3:35 PM 46.4 °F 41.9 °F 37.4 °F 71% 29.77 in 10.0 mi NNW 9.2 mph - 0.02 in   Overcast
3:55 PM 46.4 °F 41.1 °F 35.6 °F 66% 29.77 in 10.0 mi NNE 11.5 mph 18.4 mph 0.02 in   Overcast
4:35 PM 46.4 °F 42.4 °F 37.4 °F 71% 29.77 in 10.0 mi NNW 8.1 mph - N/A   Overcast
4:55 PM 46.4 °F 42.9 °F 37.4 °F 71% 29.78 in 10.0 mi North 6.9 mph 17.3 mph 0.01 in   Overcast
5:15 PM 46.4 °F 41.9 °F 37.4 °F 71% 29.77 in 10.0 mi North 9.2 mph - N/A   Overcast
5:35 PM 46.4 °F 41.5 °F 37.4 °F 71% 29.77 in 10.0 mi North 10.4 mph - 0.01 in   Overcast
5:55 PM 46.4 °F 41.9 °F 37.4 °F 71% 29.76 in 10.0 mi NNW 9.2 mph - 0.01 in   Overcast
6:15 PM 46.4 °F 41.5 °F 37.4 °F 71% 29.77 in 10.0 mi North 10.4 mph 17.3 mph N/A   Overcast
6:35 PM 46.4 °F 41.1 °F 37.4 °F 71% 29.76 in 10.0 mi North 11.5 mph 18.4 mph N/A   Overcast
6:55 PM 46.4 °F 41.9 °F 37.4 °F 71% 29.77 in 10.0 mi North 9.2 mph 23.0 mph N/A   Overcast
7:15 PM 46.4 °F 41.9 °F 35.6 °F 66% 29.78 in 10.0 mi North 9.2 mph 18.4 mph N/A   Overcast
7:35 PM 46.4 °F 41.1 °F 35.6 °F 66% 29.78 in 10.0 mi North 11.5 mph 21.9 mph N/A   Overcast
7:55 PM 46.4 °F 41.5 °F 35.6 °F 66% 29.79 in 10.0 mi North 10.4 mph 18.4 mph N/A   Overcast
8:15 PM 46.4 °F 41.1 °F 35.6 °F 66% 29.78 in 10.0 mi North 11.5 mph 18.4 mph N/A   Overcast
8:36 PM 46.4 °F 41.9 °F 35.6 °F 66% 29.77 in 10.0 mi NNW 9.2 mph 18.4 mph N/A   Overcast
8:55 PM 46.4 °F 41.5 °F 35.6 °F 66% 29.77 in 10.0 mi NNW 10.4 mph 17.3 mph 0.01 in   Overcast
9:15 PM 46.4 °F 41.9 °F 37.4 °F 71% 29.77 in 10.0 mi NNW 9.2 mph - N/A   Overcast
9:35 PM 46.4 °F 41.5 °F 35.6 °F 66% 29.76 in 10.0 mi NNW 10.4 mph - 0.01 in   Overcast
9:55 PM 46.4 °F 41.5 °F 35.6 °F 66% 29.76 in 10.0 mi NNW 10.4 mph - 0.01 in   Overcast
10:15 PM 46.4 °F 41.9 °F 35.6 °F 66% 29.76 in 10.0 mi NW 9.2 mph - 0.01 in   Overcast
10:35 PM 46.4 °F 41.1 °F 37.4 °F 71% 29.76 in 10.0 mi NW 11.5 mph - 0.01 in   Overcast
10:55 PM 46.4 °F 41.9 °F 37.4 °F 71% 29.76 in 10.0 mi NNW 9.2 mph - 0.01 in   Overcast
11:15 PM 46.4 °F 42.4 °F 37.4 °F 71% 29.75 in 10.0 mi NW 8.1 mph - N/A   Overcast
11:35 PM 46.4 °F 41.5 °F 37.4 °F 71% 29.74 in 10.0 mi NNW 10.4 mph - 0.02 in   Overcast
11:55 PM 44.6 °F 40.2 °F 35.6 °F 71% 29.73 in 10.0 mi NNW 8.1 mph - 0.03 in   Overcast